This is the latest recevied weather packets stored in our database for station/object EW1958. If no packets are shown the sender has not sent any weather packets the latest 10 day(s).
| Time | Temp. | Humidity | Pressure | Rain* | Wind** | Luminosity | Snow |
|---|---|---|---|---|---|---|---|
| 1777430251 | 12.22° C | 77% | 1025.9 hPa | 0 mm | - | - | - |
| 1777429820 | 12.22° C | 75% | 1026 hPa | 0 mm | - | - | - |
| 1777429517 | 12.22° C | 74% | 1026 hPa | 0 mm | - | - | - |
| 1777429343 | 12.22° C | 75% | 1025.9 hPa | 0 mm | - | - | - |
| 1777428916 | 12.22° C | 74% | 1026 hPa | 0 mm | - | - | - |
| 1777428771 | 12.22° C | 75% | 1026 hPa | 0 mm | - | - | - |
| 1777428316 | 12.22° C | 74% | 1026 hPa | 0 mm | - | - | - |
| 1777428015 | 12.22° C | 73% | 1026 hPa | 0 mm | - | - | - |
| 1777427714 | 12.22° C | 71% | 1026 hPa | 0 mm | - | - | - |
| 1777427413 | 12.22° C | 74% | 1026 hPa | 0 mm | - | - | - |
| 1777427112 | 12.78° C | 74% | 1026 hPa | 0 mm | - | - | - |
| 1777426813 | 12.78° C | 74% | 1026.1 hPa | 0 mm | - | - | - |
| 1777426514 | 12.78° C | 74% | 1026 hPa | 0 mm | - | - | - |
| 1777426221 | 12.78° C | 72% | 1026 hPa | 0 mm | - | - | - |
| 1777425740 | 12.78° C | 69% | 1026 hPa | 0 mm | - | - | - |
| 1777425312 | 12.78° C | 70% | 1026 hPa | 0 mm | - | - | - |
| 1777425136 | 12.78° C | 73% | 1026 hPa | 0 mm | - | - | - |
| 1777424712 | 12.78° C | 72% | 1025.9 hPa | 0 mm | - | - | - |
| 1777424412 | 12.78° C | 72% | 1025.9 hPa | 0 mm | - | - | - |
| 1777424240 | 12.78° C | 71% | 1026 hPa | 0 mm | - | - | - |
| 1777423812 | 12.78° C | 70% | 1026 hPa | 0 mm | - | - | - |
| 1777423681 | 12.78° C | 70% | 1025.8 hPa | 0 mm | - | - | - |
| 1777423518 | 12.78° C | 70% | 1025.9 hPa | 0 mm | - | - | - |
| 1777422621 | 12.78° C | 69% | 1025.7 hPa | 0 mm | - | - | - |
| 1777422465 | 12.78° C | 68% | 1025.6 hPa | 0 mm | - | - | - |
* Rain latest hour (hover to see other rain measurements)
** Current wind speed in m/s (hover to see current wind gust speed)